timestamp,wind_dir_avg,wind_spd_avg,wind_spd_max_dir,wind_spd_gust,battery_voltage,lat,long
2021-08-18 00:04:00+00:00,247.0,7.53,252.0,9.24,12.81,47.59359,-54.27349
2021-08-18 00:14:01+00:00,252.0,7.02,254.0,7.7,12.65,47.59359,-54.27349
2021-08-18 00:24:01+00:00,249.0,7.73,249.0,9.27,12.65,47.59359,-54.27349
2021-08-18 00:34:01+00:00,254.0,7.04,260.0,8.38,12.65,47.59359,-54.27349
2021-08-18 00:44:01+00:00,252.0,8.28,254.0,9.22,12.65,47.59359,-54.27349
2021-08-18 00:54:01+00:00,247.0,7.8,241.0,9.52,12.65,47.59359,-54.27349
2021-08-18 01:04:01+00:00,261.0,10.17,263.0,11.56,12.65,47.59359,-54.27349
2021-08-18 01:14:01+00:00,264.0,10.08,257.0,12.21,12.65,47.59359,-54.27349
2021-08-18 01:24:01+00:00,255.0,10.05,261.0,11.69,12.65,47.59359,-54.27349
2021-08-18 01:34:01+00:00,254.0,9.83,254.0,11.15,12.65,47.59359,-54.27349
2021-08-18 01:44:01+00:00,254.0,9.31,252.0,9.84,12.65,47.59359,-54.27349
2021-08-18 01:54:01+00:00,256.0,9.41,253.0,11.18,12.65,47.59359,-54.27349
2021-08-18 02:04:01+00:00,247.0,8.12,245.0,9.79,12.65,47.59359,-54.27349
2021-08-18 02:14:01+00:00,251.0,7.64,253.0,9.28,12.65,47.59359,-54.27349
2021-08-18 02:24:01+00:00,247.0,8.12,245.0,9.83,12.65,47.59359,-54.27349
2021-08-18 02:34:01+00:00,240.0,8.11,236.0,9.3,12.65,47.59359,-54.27349
2021-08-18 02:44:01+00:00,240.0,6.76,236.0,7.64,12.65,47.59359,-54.27349
2021-08-18 02:54:01+00:00,245.0,8.39,253.0,11.23,12.65,47.59359,-54.27349
2021-08-18 03:04:01+00:00,249.0,7.71,250.0,10.09,12.65,47.59359,-54.27349
2021-08-18 03:14:00+00:00,244.0,7.4,243.0,8.28,12.65,47.59359,-54.27349
2021-08-18 03:24:00+00:00,246.0,7.38,248.0,8.58,12.65,47.59359,-54.27349
2021-08-18 03:34:00+00:00,241.0,7.16,240.0,8.46,12.65,47.59359,-54.27349
2021-08-18 03:44:00+00:00,246.0,6.92,245.0,8.63,12.65,47.59359,-54.27349
2021-08-18 03:54:00+00:00,237.0,7.61,234.0,9.44,12.65,47.59359,-54.27349
2021-08-18 04:04:00+00:00,239.0,7.4,242.0,9.71,12.65,47.59359,-54.27349
2021-08-18 04:14:01+00:00,238.0,6.92,242.0,7.95,12.65,47.59359,-54.27349
2021-08-18 04:24:01+00:00,233.0,6.57,236.0,7.54,12.65,47.59359,-54.27349
2021-08-18 04:34:01+00:00,233.0,5.73,231.0,6.52,12.65,47.59359,-54.27349
2021-08-18 04:44:01+00:00,231.0,5.8,234.0,6.54,12.65,47.59359,-54.27349
2021-08-18 04:54:01+00:00,233.0,6.06,235.0,6.55,12.65,47.59359,-54.27349
2021-08-18 05:04:01+00:00,236.0,5.96,237.0,6.4,12.65,47.59359,-54.27349
2021-08-18 05:14:01+00:00,250.0,5.87,259.0,6.93,12.57,47.59359,-54.27349
2021-08-18 05:24:01+00:00,242.0,7.22,249.0,9.68,12.57,47.59359,-54.27349
2021-08-18 05:34:01+00:00,252.0,7.48,246.0,8.84,12.57,47.59359,-54.27349
2021-08-18 05:44:01+00:00,249.0,5.66,254.0,6.47,12.57,47.59359,-54.27349
2021-08-18 05:54:01+00:00,253.0,5.11,250.0,6.01,12.57,47.59359,-54.27349
2021-08-18 06:04:01+00:00,251.0,5.11,257.0,5.94,12.57,47.59359,-54.27349
2021-08-18 06:14:00+00:00,246.0,4.1,250.0,5.37,12.57,47.59359,-54.27349
2021-08-18 06:24:00+00:00,266.0,5.45,271.0,6.71,12.57,47.59359,-54.27349
2021-08-18 06:34:00+00:00,252.0,6.95,255.0,9.56,12.57,47.59359,-54.27349
2021-08-18 06:44:00+00:00,263.0,7.25,264.0,8.82,12.57,47.59359,-54.27349
2021-08-18 06:54:00+00:00,265.0,4.28,258.0,5.04,12.57,47.59359,-54.27349
2021-08-18 07:04:00+00:00,269.0,5.39,264.0,6.15,12.57,47.59359,-54.27349
2021-08-18 07:14:01+00:00,276.0,6.6,274.0,8.7,12.57,47.59359,-54.27349
2021-08-18 07:24:01+00:00,264.0,6.38,265.0,8.11,12.57,47.59359,-54.27349
2021-08-18 07:34:01+00:00,270.0,5.94,267.0,6.86,12.57,47.59359,-54.27349
2021-08-18 07:44:01+00:00,275.0,5.8,282.0,7.17,12.57,47.59359,-54.27349
2021-08-18 07:54:01+00:00,273.0,5.91,268.0,6.41,12.57,47.59359,-54.27349
2021-08-18 08:04:01+00:00,272.0,6.5,268.0,8.04,12.57,47.59359,-54.27349
2021-08-18 08:14:01+00:00,276.0,7.11,271.0,8.65,12.49,47.59359,-54.27349
2021-08-18 08:24:01+00:00,270.0,5.59,266.0,6.51,12.49,47.59359,-54.27349
2021-08-18 08:34:01+00:00,276.0,6.89,276.0,7.8,12.49,47.59359,-54.27349
2021-08-18 08:44:01+00:00,274.0,6.46,280.0,7.92,12.49,47.59359,-54.27349
2021-08-18 08:54:01+00:00,274.0,5.4,266.0,6.58,12.49,47.59359,-54.27349
2021-08-18 09:04:01+00:00,278.0,4.56,282.0,5.09,12.49,47.59359,-54.27349
2021-08-18 09:14:01+00:00,289.0,3.57,289.0,4.22,12.49,47.59359,-54.27349
2021-08-18 09:24:01+00:00,282.0,5.69,278.0,6.31,12.49,47.59359,-54.27349
2021-08-18 09:34:01+00:00,289.0,7.06,285.0,7.67,12.49,47.59359,-54.27349
2021-08-18 09:44:01+00:00,300.0,7.57,296.0,9.03,12.49,47.59359,-54.27349
2021-08-18 09:54:01+00:00,295.0,7.33,298.0,8.32,12.49,47.59359,-54.27349
2021-08-18 10:04:01+00:00,283.0,8.0,282.0,9.04,12.49,47.59359,-54.27349
2021-08-18 10:14:01+00:00,283.0,6.94,287.0,8.84,13.29,47.59359,-54.27349
2021-08-18 10:24:01+00:00,284.0,7.6,288.0,8.5,13.29,47.59359,-54.27349
2021-08-18 10:34:01+00:00,287.0,6.74,291.0,7.81,13.29,47.59359,-54.27349
2021-08-18 10:44:01+00:00,293.0,6.42,296.0,7.91,13.29,47.59359,-54.27349
2021-08-18 10:54:01+00:00,267.0,1.7,289.0,2.9,13.29,47.59359,-54.27349
2021-08-18 11:04:01+00:00,217.0,2.43,217.0,3.01,13.29,47.59359,-54.27349
2021-08-18 11:14:00+00:00,248.0,1.85,250.0,2.2,13.84,47.59359,-54.27349
2021-08-18 11:24:00+00:00,231.0,4.53,231.0,5.22,13.84,47.59359,-54.27349
2021-08-18 11:34:00+00:00,266.0,3.7,254.0,4.63,13.84,47.59359,-54.27349
2021-08-18 11:44:00+00:00,232.0,2.15,238.0,2.83,13.84,47.59359,-54.27349
2021-08-18 11:54:00+00:00,199.0,5.08,206.0,5.82,13.84,47.59359,-54.27349
2021-08-18 12:04:00+00:00,194.0,6.01,195.0,6.63,13.84,47.59359,-54.27349
2021-08-18 12:14:01+00:00,192.0,5.08,192.0,5.43,13.92,47.59359,-54.27349
2021-08-18 12:24:01+00:00,202.0,5.18,204.0,5.65,13.92,47.59359,-54.27349
2021-08-18 12:34:01+00:00,206.0,5.64,208.0,6.24,13.92,47.59359,-54.27349
2021-08-18 12:44:01+00:00,211.0,6.24,213.0,6.68,13.92,47.59359,-54.27349
2021-08-18 12:54:01+00:00,204.0,6.08,202.0,6.64,13.92,47.59359,-54.27349
2021-08-18 13:04:01+00:00,211.0,6.19,209.0,7.09,13.92,47.59359,-54.27349
2021-08-18 13:14:01+00:00,213.0,6.5,216.0,6.94,14.16,47.59359,-54.27349
2021-08-18 13:24:01+00:00,212.0,6.41,215.0,7.01,14.16,47.59359,-54.27349
2021-08-18 13:34:01+00:00,212.0,7.06,212.0,7.52,14.16,47.59359,-54.27349
2021-08-18 13:44:01+00:00,206.0,7.71,208.0,8.76,14.16,47.59359,-54.27349
2021-08-18 13:54:01+00:00,207.0,7.73,206.0,8.5,14.16,47.59359,-54.27349
2021-08-18 14:04:01+00:00,214.0,7.96,217.0,8.74,14.16,47.59359,-54.27349
2021-08-18 14:14:01+00:00,213.0,8.04,214.0,8.95,14.32,47.59359,-54.27349
2021-08-18 14:24:01+00:00,210.0,9.25,211.0,9.96,14.32,47.59359,-54.27349
2021-08-18 14:34:01+00:00,208.0,9.07,209.0,10.26,14.32,47.59359,-54.27349
2021-08-18 14:44:01+00:00,203.0,8.1,206.0,9.0,14.32,47.59359,-54.27349
2021-08-18 14:54:01+00:00,206.0,8.03,211.0,8.94,14.32,47.59359,-54.27349
2021-08-18 15:04:01+00:00,205.0,9.16,208.0,10.15,14.32,47.59359,-54.27349
2021-08-18 15:14:01+00:00,209.0,8.82,211.0,10.04,14.32,47.59359,-54.27349
2021-08-18 15:24:01+00:00,210.0,8.65,209.0,9.26,14.32,47.59359,-54.27349
2021-08-18 15:34:01+00:00,207.0,7.71,210.0,8.39,14.32,47.59359,-54.27349
2021-08-18 15:44:01+00:00,205.0,6.79,205.0,8.01,14.32,47.59359,-54.27349
2021-08-18 15:54:01+00:00,209.0,7.22,212.0,8.35,14.32,47.59359,-54.27349
2021-08-18 16:04:01+00:00,202.0,6.85,203.0,7.4,14.32,47.59359,-54.27349
2021-08-18 16:14:01+00:00,212.0,9.43,212.0,10.24,14.24,47.59359,-54.27349
2021-08-18 16:24:01+00:00,213.0,9.65,214.0,10.56,14.24,47.59359,-54.27349
2021-08-18 16:34:01+00:00,211.0,9.09,211.0,10.03,14.24,47.59359,-54.27349
2021-08-18 16:44:01+00:00,216.0,9.14,211.0,10.46,14.24,47.59359,-54.27349
2021-08-18 16:54:01+00:00,217.0,9.07,214.0,9.88,14.24,47.59359,-54.27349
2021-08-18 17:04:01+00:00,219.0,9.49,218.0,11.15,14.24,47.59359,-54.27349
2021-08-18 17:14:01+00:00,219.0,8.9,221.0,10.03,14.08,47.59359,-54.27349
2021-08-18 17:24:01+00:00,213.0,9.26,212.0,9.91,14.08,47.59359,-54.27349
2021-08-18 17:34:01+00:00,217.0,7.84,217.0,8.82,14.08,47.59359,-54.27349
2021-08-18 17:44:01+00:00,225.0,8.49,228.0,9.44,14.08,47.59359,-54.27349
2021-08-18 17:54:01+00:00,225.0,7.16,221.0,7.83,14.08,47.59359,-54.27349
2021-08-18 18:04:01+00:00,213.0,8.16,214.0,9.19,14.08,47.59359,-54.27349
2021-08-18 18:14:01+00:00,218.0,6.9,228.0,7.72,14.0,47.59359,-54.27349
2021-08-18 18:24:01+00:00,216.0,7.62,216.0,8.73,14.0,47.59359,-54.27349
2021-08-18 18:34:01+00:00,210.0,9.73,211.0,10.48,14.0,47.59359,-54.27349
2021-08-18 18:44:01+00:00,208.0,8.95,205.0,9.58,14.0,47.59359,-54.27349
2021-08-18 18:54:01+00:00,204.0,8.88,204.0,9.68,14.0,47.59359,-54.27349
2021-08-18 19:04:01+00:00,207.0,7.23,212.0,9.3,14.0,47.59359,-54.27349
2021-08-18 19:14:01+00:00,214.0,7.6,213.0,8.19,13.92,47.59359,-54.27349
2021-08-18 19:24:01+00:00,221.0,7.54,224.0,8.83,13.92,47.59359,-54.27349
2021-08-18 19:34:01+00:00,222.0,8.09,220.0,8.84,13.92,47.59359,-54.27349
2021-08-18 19:44:01+00:00,215.0,7.31,215.0,8.47,13.92,47.59359,-54.27349
2021-08-18 19:54:01+00:00,218.0,6.56,225.0,7.71,13.92,47.59359,-54.27349
2021-08-18 20:04:01+00:00,215.0,6.77,215.0,7.31,13.92,47.59359,-54.27349
2021-08-18 20:14:01+00:00,216.0,7.09,217.0,7.99,13.76,47.59359,-54.27349
2021-08-18 20:24:01+00:00,221.0,7.25,222.0,7.78,13.76,47.59359,-54.27349
2021-08-18 20:34:01+00:00,222.0,7.44,222.0,8.3,13.76,47.59359,-54.27349
2021-08-18 20:44:01+00:00,230.0,6.01,221.0,7.49,13.76,47.59359,-54.27349
2021-08-18 20:54:01+00:00,221.0,5.0,224.0,5.44,13.76,47.59359,-54.27349
2021-08-18 21:04:01+00:00,235.0,5.53,240.0,6.39,13.76,47.59359,-54.27349
2021-08-18 21:14:01+00:00,221.0,6.26,226.0,10.7,13.53,47.59359,-54.27349
2021-08-18 21:24:01+00:00,235.0,7.41,235.0,11.63,13.53,47.59359,-54.27349
2021-08-18 21:34:01+00:00,232.0,10.01,231.0,12.56,13.53,47.59359,-54.27349
2021-08-18 21:44:01+00:00,245.0,7.83,250.0,9.84,13.53,47.59359,-54.27349
2021-08-18 21:54:01+00:00,238.0,8.46,241.0,11.07,13.53,47.59359,-54.27349
2021-08-18 22:04:01+00:00,253.0,7.39,252.0,10.83,13.53,47.59359,-54.27349
2021-08-18 22:14:01+00:00,263.0,7.61,269.0,9.61,13.13,47.59359,-54.27349
2021-08-18 22:24:01+00:00,264.0,6.87,274.0,7.52,13.13,47.59359,-54.27349
2021-08-18 22:34:01+00:00,261.0,6.41,265.0,7.57,13.13,47.59359,-54.27349
2021-08-18 22:44:01+00:00,251.0,6.33,268.0,7.79,13.13,47.59359,-54.27349
2021-08-18 22:54:01+00:00,204.0,2.42,233.0,4.62,13.13,47.59359,-54.27349
2021-08-18 23:04:01+00:00,185.0,4.02,195.0,4.85,13.13,47.59359,-54.27349
2021-08-18 23:14:00+00:00,187.0,5.04,182.0,6.49,12.73,47.59359,-54.27349
2021-08-18 23:24:00+00:00,204.0,6.11,199.0,7.57,12.73,47.59359,-54.27349
2021-08-18 23:34:00+00:00,262.0,3.54,254.0,6.31,12.73,47.59359,-54.27349
2021-08-18 23:44:00+00:00,229.0,4.19,227.0,5.5,12.73,47.59359,-54.27349
2021-08-18 23:54:00+00:00,225.0,5.29,225.0,6.17,12.73,47.59359,-54.27349
